• Em Portugal
  • Lista de países
  • Para 7 dias
  • Temperatura da água
  • Mapas de satélite
  • Mapa do tempo
  • Widgets de tempo
  • user-avatar
    Iniciar Sessão

    Previsão horária em Pazardjico

    Hoje, 16 Novembro, Sexta-feira

    Tempo Temperatura Precipitação Vento Pressão Humidade
    00:00 +7°C° 0.1 mm 1 m/s 749 mmHg 73%
    01:00 +7°C° 0.1 mm 1 m/s 749 mmHg 74%
    02:00 +7°C° 0.1 mm 1 m/s 750 mmHg 74%
    03:00 +6°C° 0.1 mm 1 m/s 750 mmHg 75%
    04:00 +6°C° 0.1 mm 1 m/s 750 mmHg 76%
    05:00 +6°C° 0.1 mm 1 m/s 750 mmHg 78%
    06:00 +6°C° 0 mm 1 m/s 750 mmHg 78%
    07:00 +6°C° 0 mm 1 m/s 750 mmHg 78%
    08:00 +6°C° 0 mm 1 m/s 751 mmHg 78%
    09:00 +8°C° 0 mm 1 m/s 751 mmHg 71%
    10:00 +9°C° 0 mm 1 m/s 751 mmHg 64%
    11:00 +11°C° 0 mm 1 m/s 751 mmHg 58%
    12:00 +11°C° 0 mm 1 m/s 751 mmHg 57%
    13:00 +10°C° 0 mm 2 m/s 750 mmHg 55%
    14:00 +10°C° 0 mm 2 m/s 750 mmHg 54%
    15:00 +9°C° 0 mm 2 m/s 750 mmHg 59%
    16:00 +9°C° 0 mm 1 m/s 750 mmHg 64%
    17:00 +8°C° 0 mm 1 m/s 751 mmHg 69%
    18:00 +7°C° 0 mm 1 m/s 751 mmHg 72%
    19:00 +6°C° 0 mm 1 m/s 751 mmHg 76%
    20:00 +6°C° 0 mm 1 m/s 752 mmHg 79%
    21:00 +5°C° 0 mm 1 m/s 752 mmHg 81%
    22:00 +5°C° 0 mm 1 m/s 752 mmHg 82%
    23:00 +4°C° 0 mm 1 m/s 752 mmHg 84%

    Amanhã, 17 Novembro, Sábado

    Tempo Temperatura Precipitação Vento Pressão Humidade
    00:00 +4°C° 0 mm 1 m/s 752 mmHg 85%
    01:00 +4°C° 0 mm 1 m/s 752 mmHg 85%
    02:00 +2°C° 0 mm 0 m/s 752 mmHg 86%
    03:00 +3°C° 0 mm 1 m/s 752 mmHg 86%
    04:00 +3°C° 0 mm 1 m/s 752 mmHg 86%
    05:00 +3°C° 0 mm 1 m/s 752 mmHg 86%
    06:00 +3°C° 0 mm 1 m/s 752 mmHg 84%
    07:00 +3°C° 0 mm 1 m/s 752 mmHg 82%
    08:00 +3°C° 0 mm 1 m/s 752 mmHg 81%
    09:00 +5°C° 0 mm 1 m/s 752 mmHg 72%
    10:00 +6°C° 0 mm 1 m/s 752 mmHg 64%
    11:00 +8°C° 0 mm 1 m/s 752 mmHg 56%
    12:00 +8°C° 0 mm 1 m/s 752 mmHg 55%
    13:00 +8°C° 0 mm 1 m/s 751 mmHg 55%
    14:00 +8°C° 0 mm 2 m/s 751 mmHg 55%
    15:00 +8°C° 0 mm 1 m/s 751 mmHg 59%
    16:00 +7°C° 0 mm 1 m/s 751 mmHg 63%
    17:00 +6°C° 0 mm 1 m/s 751 mmHg 68%
    18:00 +6°C° 0 mm 1 m/s 751 mmHg 69%
    19:00 +6°C° 0 mm 1 m/s 751 mmHg 71%
    20:00 +5°C° 0 mm 1 m/s 751 mmHg 73%
    21:00 +5°C° 0 mm 1 m/s 751 mmHg 75%
    22:00 +5°C° 0 mm 1 m/s 751 mmHg 77%
    23:00 +5°C° 0 mm 1 m/s 751 mmHg 79%

    Depois de amanhã, 18 Novembro, Domingo

    Tempo Temperatura Precipitação Vento Pressão Humidade
    00:00 +5°C° 0 mm 1 m/s 751 mmHg 80%
    01:00 +5°C° 0 mm 1 m/s 751 mmHg 80%
    02:00 +5°C° 0 mm 1 m/s 750 mmHg 81%
    03:00 +5°C° 0 mm 1 m/s 750 mmHg 81%
    04:00 +5°C° 0 mm 1 m/s 750 mmHg 82%
    05:00 +5°C° 0 mm 1 m/s 749 mmHg 83%
    06:00 +5°C° 0 mm 1 m/s 749 mmHg 81%
    07:00 +5°C° 0 mm 1 m/s 749 mmHg 80%
    08:00 +5°C° 0 mm 1 m/s 749 mmHg 79%
    09:00 +7°C° 0 mm 1 m/s 749 mmHg 74%
    10:00 +8°C° 0 mm 1 m/s 749 mmHg 69%
    11:00 +9°C° 0 mm 1 m/s 748 mmHg 64%
    12:00 +10°C° 0 mm 1 m/s 748 mmHg 63%
    13:00 +9°C° 0 mm 2 m/s 747 mmHg 62%
    14:00 +10°C° 0 mm 2 m/s 746 mmHg 60%
    15:00 +9°C° 0 mm 2 m/s 746 mmHg 67%
    16:00 +8°C° 0 mm 2 m/s 746 mmHg 74%
    17:00 +7°C° 0 mm 1 m/s 745 mmHg 81%
    18:00 +7°C° 0 mm 1 m/s 745 mmHg 84%
    19:00 +7°C° 0 mm 1 m/s 744 mmHg 86%
    20:00 +7°C° 0 mm 1 m/s 744 mmHg 88%
    21:00 +7°C° 0.3 mm 1 m/s 744 mmHg 88%
    22:00 +7°C° 0.3 mm 1 m/s 744 mmHg 88%
    23:00 +7°C° 0.3 mm 1 m/s 743 mmHg 89%

    19 Novembro, Segunda-feira

    Tempo Temperatura Precipitação Vento Pressão Humidade
    00:00 +7°C° 0.7 mm 1 m/s 743 mmHg 90%
    01:00 +7°C° 0.7 mm 1 m/s 743 mmHg 90%
    02:00 +7°C° 0.7 mm 1 m/s 742 mmHg 91%
    03:00 +7°C° 0.4 mm 1 m/s 742 mmHg 92%
    04:00 +6°C° 0.4 mm 0 m/s 741 mmHg 92%
    05:00 +6°C° 0.4 mm 0 m/s 741 mmHg 92%
    06:00 +7°C° 0.5 mm 1 m/s 741 mmHg 92%
    07:00 +7°C° 0.5 mm 1 m/s 741 mmHg 91%
    08:00 +8°C° 0.5 mm 1 m/s 741 mmHg 91%
    09:00 +8°C° 0.2 mm 1 m/s 741 mmHg 89%
    10:00 +9°C° 0.2 mm 1 m/s 741 mmHg 87%
    11:00 +9°C° 0.2 mm 2 m/s 741 mmHg 85%
    12:00 +9°C° 0.1 mm 2 m/s 740 mmHg 85%
    13:00 +10°C° 0.1 mm 2 m/s 740 mmHg 85%
    14:00 +10°C° 0.1 mm 2 m/s 740 mmHg 85%
    15:00 +10°C° 0 mm 2 m/s 740 mmHg 88%
    16:00 +9°C° 0 mm 2 m/s 740 mmHg 91%
    17:00 +10°C° 0 mm 1 m/s 740 mmHg 94%
    18:00 +10°C° 0 mm 1 m/s 740 mmHg 94%
    19:00 +9°C° 0 mm 1 m/s 740 mmHg 95%
    20:00 +9°C° 0 mm 1 m/s 741 mmHg 95%
    21:00 +9°C° 0 mm 1 m/s 741 mmHg 95%
    22:00 +9°C° 0 mm 1 m/s 741 mmHg 95%
    23:00 +9°C° 0 mm 1 m/s 742 mmHg 95%

    20 Novembro, Terça-feira

    Tempo Temperatura Precipitação Vento Pressão Humidade
    00:00 +9°C° 0 mm 1 m/s 742 mmHg 95%
    01:00 +10°C° 0 mm 1 m/s 742 mmHg 95%
    02:00 +10°C° 0 mm 1 m/s 742 mmHg 95%
    03:00 +9°C° 0 mm 1 m/s 741 mmHg 95%
    04:00 +9°C° 0 mm 1 m/s 741 mmHg 95%
    05:00 +9°C° 0 mm 1 m/s 741 mmHg 95%
    06:00 +10°C° 0 mm 1 m/s 741 mmHg 95%
    07:00 +9°C° 0 mm 2 m/s 741 mmHg 94%
    08:00 +9°C° 0 mm 2 m/s 741 mmHg 94%
    09:00 +12°C° 0 mm 2 m/s 741 mmHg 90%
    10:00 +13°C° 0 mm 2 m/s 741 mmHg 86%
    11:00 +14°C° 0 mm 2 m/s 741 mmHg 82%
    12:00 +15°C° 0 mm 2 m/s 741 mmHg 81%
    13:00 +15°C° 0 mm 2 m/s 741 mmHg 80%
    14:00 +16°C° 0 mm 2 m/s 740 mmHg 79%
    15:00 +15°C° 0 mm 2 m/s 740 mmHg 83%
    16:00 +14°C° 0 mm 2 m/s 740 mmHg 87%
    17:00 +13°C° 0 mm 2 m/s 740 mmHg 91%
    18:00 +13°C° 0.1 mm 2 m/s 740 mmHg 92%
    19:00 +13°C° 0.1 mm 2 m/s 740 mmHg 92%
    20:00 +13°C° 0.1 mm 2 m/s 739 mmHg 93%
    21:00 +13°C° 0 mm 2 m/s 739 mmHg 93%
    22:00 +13°C° 0 mm 2 m/s 739 mmHg 92%
    23:00 +13°C° 0 mm 2 m/s 739 mmHg 92%

    21 Novembro, Quarta-feira

    Tempo Temperatura Precipitação Vento Pressão Humidade
    00:00 +14°C° 0 mm 2 m/s 738 mmHg 93%
    01:00 +13°C° 0 mm 3 m/s 737 mmHg 93%
    02:00 +13°C° 0 mm 3 m/s 737 mmHg 93%
    03:00 +13°C° 0.1 mm 3 m/s 737 mmHg 92%
    04:00 +13°C° 0.1 mm 3 m/s 736 mmHg 92%
    05:00 +14°C° 0.1 mm 3 m/s 736 mmHg 92%
    06:00 +13°C° 0 mm 3 m/s 736 mmHg 91%
    07:00 +13°C° 0 mm 3 m/s 736 mmHg 91%
    08:00 +14°C° 0 mm 2 m/s 736 mmHg 90%
    09:00 +16°C° 0 mm 2 m/s 736 mmHg 83%
    10:00 +17°C° 0 mm 2 m/s 736 mmHg 76%
    11:00 +18°C° 0 mm 2 m/s 737 mmHg 69%
    12:00 +19°C° 0 mm 2 m/s 737 mmHg 65%
    13:00 +19°C° 0 mm 2 m/s 736 mmHg 62%
    14:00 +20°C° 0 mm 2 m/s 736 mmHg 58%
    15:00 +20°C° 0 mm 1 m/s 737 mmHg 64%
    16:00 +18°C° 0 mm 1 m/s 737 mmHg 69%
    17:00 +16°C° 0 mm 1 m/s 737 mmHg 74%
    18:00 +15°C° 0 mm 1 m/s 737 mmHg 76%
    19:00 +15°C° 0 mm 1 m/s 738 mmHg 78%
    20:00 +14°C° 0 mm 1 m/s 738 mmHg 80%
    21:00 +14°C° 0 mm 1 m/s 739 mmHg 81%
    22:00 +14°C° 0 mm 2 m/s 740 mmHg 82%
    23:00 +13°C° 0 mm 2 m/s 740 mmHg 82%
    Mostrar mais